Simultaneous Nadir Overpasses (SNOs) Predictions

Prediction of SNOs between METOP-B and NOAA-19 Satellite Orbit:

Table of predicted SNOs for the next 14.0 days since TLE Epoch: 11/19/2022
Index Date (METOP-B) Time (METOP-B) Lat,Lon (METOP-B) SZA (METOP-B ) Date (NOAA-19) Time (NOAA-19) Lat,Lon (NOAA-19) SZA (NOAA-19 ) Distance(km) Time Diff (sec)
1 11/19/2022 16:45:30 80.90, -36.73 102.30 11/19/2022 16:44:22 80.91, -36.72 102.28 1.02 68
2 11/19/2022 17:36:11 -80.90, 130.63 77.70 11/19/2022 17:35:19 -80.91, 130.80 77.69 3.13 52
3 11/19/2022 18:26:51 80.91, -61.86 102.34 11/19/2022 18:26:21 80.91, -61.98 102.32 2.18 30
4 11/19/2022 19:17:32 -80.91, 105.49 77.65 11/19/2022 19:17:18 -80.91, 105.54 77.66 1.04 14
5 11/19/2022 20:08:13 80.90, -87.35 102.34 11/19/2022 20:08:20 80.91, -87.25 102.35 1.88 7
6 11/19/2022 20:58:54 -80.90, 80.00 77.66 11/19/2022 20:59:18 -80.91, 79.91 77.65 1.66 24
7 11/19/2022 21:49:34 80.91,-112.49 102.38 11/19/2022 21:50:19 80.91,-112.51 102.39 1.03 45
8 11/19/2022 22:40:16 -80.90, 54.51 77.66 11/19/2022 22:41:17 -80.91, 54.65 77.62 2.63 61
9 12/01/2022 00:44:16 80.92,-156.03 104.46 12/01/2022 00:43:13 80.91,-156.06 104.43 1.13 63
10 12/01/2022 01:34:58 -80.90, 10.98 75.58 12/01/2022 01:34:14 -80.91, 11.12 75.58 2.56 44
11 12/01/2022 02:25:38 80.91, 178.47 104.45 12/01/2022 02:25:13 80.91, 178.29 104.42 3.13 25
12 12/01/2022 03:16:19 -80.91, -14.15 75.54 12/01/2022 03:16:13 -80.91, -14.15 75.55 0.59 6
13 12/01/2022 04:07:00 80.90, 152.97 104.44 12/01/2022 04:07:12 80.91, 153.01 104.45 1.03 12
14 12/01/2022 04:57:41 -80.91, -39.65 75.55 12/01/2022 04:58:13 -80.91, -39.79 75.55 2.41 32
15 12/01/2022 05:48:21 80.91, 127.83 104.48 12/01/2022 05:49:11 80.91, 127.74 104.48 1.71 50



Historial Predications of SNOs between METOP-B and NOAA-19
